Location: Rounton
(54.4000°N, 1.3500°W)
Time: 07:44:50
(UTC+00:00)

Vanguard 1 Rocket - Pass Details

Date: 03 December 2021
Orbit: 651 x 4224 km, 34.3° (Epoch: 19 January)

Event Time Altitude Azimuth Distance (km) Brightness Sun altitude
Rises 07:16:03 0° 265° (W) 6,256 11.2 -6.9°
Reaches altitude 10° 07:20:13 10° 256° (WSW) 5,691 11.0 -6.4°
Maximum altitude 07:35:54 33° 201° (SSW) 5,209 11.4 -4.4°
Drops below altitude 10° 07:56:36 10° 149° (SSE) 7,408 13.4 -2.0°
Sets 08:03:15 0° 141° (SE) 8,306 14.4 -1.2°
